Flag for Ireland Weather past 2 weeks in Dublin, Ireland

Now
36 °F

Passing clouds.


Feels Like: 24 °F
Forecast: 36 / 53 °F
Wind: 21 mph from Southwest

Location: Dublin Airport

Current Time: Apr 28, 2015 at 1:37:12 AM

Latest Report: Apr 28, 2015 at 1:00 AM


Visibility: N/A

Pressure: 29.86 "Hg

Humidity: 87%

Dew point: 32 °F

Location of DublinLocation

Historic Weather in Dublin — Graph

°F

Dublin temperature yesterday

Maximum temperature yesterday: 48 °F (at 12:00 PM)
Minimum temperature yesterday: 30 °F (at 12:00 AM)
Average temperature yesterday: 39 °F

Past Weeks' High & Low Weather Summary

 TemperatureHumidityPressure
High63 °F (Apr 14, 6:00 PM)100% (Apr 16, 12:30 AM)30.63 "Hg (Apr 16, 12:30 AM)
Low28 °F (Apr 26, 4:00 AM)39% (Apr 14, 6:30 PM)29.53 "Hg (Apr 25, 3:30 AM)
Average46 °F78%30.14 "Hg
* Reported Midnight between Apr 12 and Apr 13 — Apr 28 12:30 AM, Dublin, Weather by CustomWeather, © 2015

Note: Actual official high and low records may vary slightly from our data, if they occured in-between our weather recording intervals... More about our weather records

Advertising

Dublin weather history for previous 24 hours

 ConditionsComfort  
Time TempWeatherWind HumidityBarometerVisibility
12:30 AM
Tue, Apr 28
36 °FPassing clouds.20 mph87%29.86 "HgN/A
12:00 AM37 °FPassing clouds.20 mph81%29.86 "HgN/A
11:30 PM
Mon, Apr 27
37 °FPassing clouds.24 mph81%29.86 "HgN/A
11:00 PM37 °FPassing clouds.23 mph81%29.83 "HgN/A
10:30 PM39 °FPassing clouds.21 mph75%29.83 "HgN/A
10:00 PM39 °FPassing clouds.17 mph75%29.83 "HgN/A
9:30 PM39 °FPartly sunny.20 mph75%29.83 "HgN/A
9:00 PM41 °FSprinkles. Partly sunny.24 mph61%29.80 "HgN/A
8:30 PM41 °FPassing clouds.21 mph57%29.80 "HgN/A
8:00 PM43 °FPassing clouds.26 mph57%29.77 "HgN/A
7:30 PM43 °FScattered showers. Passing clouds.28 mph57%29.77 "HgN/A
7:00 PM46 °FScattered showers. Scattered clouds.26 mph50%29.77 "HgN/A
6:30 PM46 °FScattered clouds.28 mph46%29.77 "HgN/A
6:00 PM46 °FScattered clouds.28 mph46%29.77 "HgN/A
5:30 PM48 °FScattered showers. Scattered clouds.24 mph46%29.77 "HgN/A
5:00 PM48 °FScattered showers. Scattered clouds.24 mph46%29.77 "HgN/A
4:30 PM48 °FScattered showers. Broken clouds.21 mph54%29.77 "HgN/A
4:00 PM46 °FSprinkles. Broken clouds.16 mph66%29.77 "HgN/A
3:30 PM43 °FBroken clouds.8 mph81%29.80 "HgN/A
3:00 PM41 °FBroken clouds.9 mph87%29.80 "HgN/A
2:30 PM39 °FSprinkles. Broken clouds.12 mph87%29.83 "Hg3 mi
2:00 PM45 °FScattered showers. Broken clouds.15 mph76%29.80 "HgN/A
1:30 PM45 °FSprinkles. Broken clouds.17 mph71%29.80 "HgN/A
1:00 PM43 °FSprinkles. Broken clouds.20 mph81%29.83 "HgN/A
12:30 PM46 °FSprinkles. Broken clouds.17 mph57%29.80 "HgN/A
12:00 PM48 °FScattered clouds.16 mph54%29.83 "HgN/A
11:30 AM46 °FScattered clouds.15 mph57%29.83 "HgN/A
11:00 AM46 °FPassing clouds.15 mph57%29.86 "HgN/A
10:30 AM45 °FPassing clouds.16 mph66%29.86 "HgN/A
10:00 AM45 °FPassing clouds.16 mph66%29.86 "HgN/A
9:30 AM43 °FPassing clouds.12 mph71%29.86 "HgN/A
9:00 AM41 °FPassing clouds.9 mph76%29.86 "HgN/A
8:30 AM39 °FPassing clouds.9 mph81%29.86 "HgN/A
8:00 AM37 °FPassing clouds.8 mph87%29.86 "HgN/A
7:30 AM36 °FPassing clouds.7 mph93%29.86 "HgN/A
7:00 AM34 °FPassing clouds.5 mph93%29.89 "HgN/A
6:30 AM32 °FPassing clouds.7 mph100%29.89 "HgN/A
6:00 AM32 °FPassing clouds.6 mph93%29.89 "HgN/A
5:30 AM30 °FPassing clouds.6 mph100%29.89 "HgN/A
5:00 AM32 °FPassing clouds.7 mph93%29.89 "HgN/A
4:30 AM30 °FPassing clouds.7 mph100%29.89 "HgN/A
4:00 AM30 °FPassing clouds.7 mph93%29.89 "HgN/A
3:30 AM32 °FPassing clouds.8 mph93%29.89 "HgN/A
3:00 AM30 °FPassing clouds.8 mph93%29.89 "HgN/A
2:30 AM30 °FPassing clouds.8 mph100%29.92 "HgN/A
2:00 AM30 °FPassing clouds.7 mph93%29.92 "HgN/A
1:30 AM32 °FPassing clouds.8 mph93%29.92 "HgN/A
1:00 AM32 °FPassing clouds.6 mph100%29.92 "HgN/A
Weather by CustomWeather, © 2015

See weather overviewHow to use our weather pages